Vertical_Velocity
-8 -5 -3 -4 -4 -4 -7 -6 -3 -4 -4 -3 -2 -0 -1 -3 1 1 1 0 -1 -0
-2 -2 -5 -4 -3 -4 -4 -5 -4 -3 -5 -3 -4 -4 -4 -4 1 -1 3 3 1 -2
-2 0 -0 -2 -2 -2 -1 -1 -2 -1 -1 -0 -0 -2 -4 -3 -1 -6 0 1 0 -0
-1 -2 -2 -3 -1 -3 -4 -2 -2 -2 -3 -2 -3 1 -3 -2 -3 -6 -3 -0 -2 2
-3 -2 -3 -3 -1 -0 -4 1 -4 -1 -4 -1 0 2 -2 -3 1 -4 -4 0 -6 -4
-2 -5 -4 -4 -3 -2 -6 -1 0 -5 -4 -2 1 -2 1 -4 -1 -3 -2 0 -4 1
-1 -2 -3 -2 -3 -4 -2 -5 -1 1 -0 -0 -1 -1 1 -1 -2 -3 -3 -1 -4 1
-4 -4 -3 -3 -2 -3 -1 -3 -2 -4 1 -1 -3 0 -2 0 -0 -2 -4 -2 0 -1
-3 -3 -1 -2 -2 -2 -2 -2 -5 -2 -4 -2 -2 -1 0 1 -5 -4 -6 -2 2 -0
-5 -3 -2 -3 -2 -2 -3 -4 -2 -2 -1 3 1 2 1 2 -0 -3 -1 -1 1 -2
-4 -5 -3 -2 -3 -2 -3 -3 -1 1 1 -1 0 2 1 2 3 -2 -1 -2 4 -2
-4 -4 -3 -4 -3 -2 -3 -0 1 -0 -0 -2 0 1 1 4 3 2 0 1 -0 -2
-2 -4 -3 -4 -1 -0 0 -3 -2 -2 1 2 -1 4 4 7 5 -3 -4 4 2 4
-0 -3 0 -1 4 -5 -4 1 1 2 8 5 4 3 4 6 1 -3 -2 1 2 -0
Height
3045 3037 3029 3022 3015 3010 3004 3000 2997 2994 2992 2990 2987 2984 2981 2978 2977 2977 2977 2976 2976 2975
3032 3025 3018 3012 3006 2999 2994 2989 2984 2979 2975 2974 2971 2969 2966 2962 2960 2959 2960 2959 2959 2959
3019 3013 3006 3001 2995 2990 2984 2978 2972 2967 2962 2958 2955 2952 2949 2947 2946 2943 2942 2942 2942 2944
3010 3003 2996 2989 2983 2977 2971 2965 2959 2953 2947 2943 2938 2935 2932 2930 2929 2926 2926 2926 2925 2927
2999 2992 2985 2978 2971 2963 2957 2951 2944 2938 2933 2928 2923 2919 2915 2913 2912 2910 2910 2911 2910 2911
2989 2981 2974 2966 2958 2950 2943 2936 2929 2922 2916 2912 2907 2902 2898 2895 2893 2892 2892 2893 2892 2895
2979 2970 2962 2954 2946 2938 2929 2921 2913 2907 2901 2896 2891 2886 2882 2878 2875 2873 2872 2873 2873 2875
2968 2960 2951 2943 2934 2925 2916 2907 2900 2893 2888 2882 2875 2870 2865 2861 2858 2855 2854 2854 2855 2856
2959 2950 2941 2931 2921 2912 2904 2895 2888 2880 2872 2865 2859 2852 2847 2843 2839 2837 2836 2836 2838 2839
2949 2939 2930 2919 2910 2901 2891 2883 2875 2866 2858 2849 2840 2836 2830 2828 2825 2822 2820 2819 2820 2821
2939 2929 2919 2910 2900 2890 2880 2871 2860 2850 2839 2829 2825 2822 2819 2817 2813 2809 2806 2804 2804 2805
2930 2920 2909 2900 2890 2880 2868 2857 2846 2834 2824 2817 2813 2810 2807 2804 2800 2795 2790 2788 2787 2788
2923 2911 2901 2891 2880 2870 2858 2844 2832 2823 2815 2807 2800 2798 2794 2791 2786 2780 2775 2772 2770 2770
2917 2905 2895 2883 2873 2860 2848 2837 2825 2813 2805 2797 2791 2784 2778 2775 2769 2766 2761 2757 2755 2754